When you browse on this site, cookies collect data to enhance your experience and personalize the content and advertising you see.
Visit our Privacy Policy to learn more. By continuing to use the site, you agree to this use of cookies and data.
  • en France
  • Liste des pays
  • À 7 jours
  • Température de l'eau
  • Carte satellitaire
  • Carte météo
  • Widgets météo
  • user-avatar
    Se connecter

    Météo par heure à Dijon

    Ce jour, 17 Février, Dimanche

    Heure Température Précipitation Vent Pression Humidité
    00:00 +6°C° 0 mm 2 m/s 743 mmHg 81%
    01:00 +5°C° 0 mm 2 m/s 743 mmHg 82%
    02:00 +5°C° 0 mm 2 m/s 743 mmHg 82%
    03:00 +4°C° 0 mm 2 m/s 742 mmHg 82%
    04:00 +4°C° 0 mm 2 m/s 742 mmHg 82%
    05:00 +3°C° 0 mm 2 m/s 742 mmHg 81%
    06:00 +3°C° 0 mm 2 m/s 742 mmHg 81%
    07:00 +4°C° 0 mm 3 m/s 742 mmHg 75%
    08:00 +5°C° 0 mm 3 m/s 742 mmHg 69%
    09:00 +7°C° 0 mm 3 m/s 742 mmHg 64%
    10:00 +8°C° 0 mm 4 m/s 742 mmHg 59%
    11:00 +11°C° 0 mm 4 m/s 741 mmHg 54%
    12:00 +13°C° 0 mm 4 m/s 741 mmHg 49%
    13:00 +13°C° 0 mm 4 m/s 741 mmHg 51%
    14:00 +13°C° 0 mm 4 m/s 741 mmHg 52%
    15:00 +14°C° 0 mm 4 m/s 740 mmHg 54%
    16:00 +12°C° 0 mm 3 m/s 740 mmHg 59%
    17:00 +10°C° 0 mm 3 m/s 740 mmHg 65%
    18:00 +8°C° 0 mm 2 m/s 740 mmHg 70%
    19:00 +7°C° 0 mm 3 m/s 740 mmHg 71%
    20:00 +7°C° 0 mm 3 m/s 740 mmHg 72%
    21:00 +5°C° 0 mm 3 m/s 740 mmHg 73%
    22:00 +5°C° 0 mm 3 m/s 740 mmHg 75%
    23:00 +4°C° 0 mm 3 m/s 741 mmHg 77%

    Demain, 18 Février, Lundi

    Heure Température Précipitation Vent Pression Humidité
    00:00 +4°C° 0 mm 3 m/s 741 mmHg 79%
    01:00 +4°C° 0 mm 3 m/s 740 mmHg 81%
    02:00 +3°C° 0 mm 3 m/s 740 mmHg 84%
    03:00 +3°C° 0 mm 3 m/s 740 mmHg 87%
    04:00 +3°C° 0 mm 3 m/s 740 mmHg 88%
    05:00 +2°C° 0 mm 3 m/s 740 mmHg 90%
    06:00 +2°C° 0 mm 3 m/s 740 mmHg 91%
    07:00 +3°C° 0 mm 3 m/s 740 mmHg 86%
    08:00 +4°C° 0 mm 4 m/s 740 mmHg 81%
    09:00 +6°C° 0 mm 4 m/s 740 mmHg 76%
    10:00 +7°C° 0 mm 5 m/s 740 mmHg 69%
    11:00 +9°C° 0 mm 5 m/s 740 mmHg 63%
    12:00 +10°C° 0 mm 5 m/s 739 mmHg 57%
    13:00 +12°C° 0 mm 5 m/s 739 mmHg 58%
    14:00 +12°C° 0 mm 4 m/s 739 mmHg 58%
    15:00 +12°C° 0 mm 4 m/s 738 mmHg 58%
    16:00 +11°C° 0 mm 3 m/s 739 mmHg 64%
    17:00 +9°C° 0 mm 3 m/s 739 mmHg 69%
    18:00 +7°C° 0 mm 2 m/s 739 mmHg 74%
    19:00 +7°C° 0 mm 2 m/s 739 mmHg 76%
    20:00 +6°C° 0 mm 2 m/s 740 mmHg 77%
    21:00 +6°C° 0 mm 2 m/s 740 mmHg 79%
    22:00 +5°C° 0 mm 2 m/s 740 mmHg 81%
    23:00 +5°C° 0 mm 2 m/s 740 mmHg 83%

    Après-demain, 19 Février, Mardi

    Heure Température Précipitation Vent Pression Humidité
    00:00 +5°C° 0 mm 2 m/s 740 mmHg 85%
    01:00 +4°C° 0 mm 2 m/s 740 mmHg 87%
    02:00 +4°C° 0 mm 2 m/s 740 mmHg 89%
    03:00 +4°C° 0 mm 2 m/s 740 mmHg 91%
    04:00 +4°C° 0 mm 2 m/s 740 mmHg 91%
    05:00 +4°C° 0 mm 2 m/s 741 mmHg 92%
    06:00 +3°C° 0 mm 2 m/s 741 mmHg 92%
    07:00 +5°C° 0 mm 2 m/s 741 mmHg 89%
    08:00 +6°C° 0 mm 2 m/s 741 mmHg 85%
    09:00 +7°C° 0 mm 2 m/s 742 mmHg 81%
    10:00 +9°C° 0 mm 2 m/s 742 mmHg 77%
    11:00 +10°C° 0 mm 2 m/s 742 mmHg 73%
    12:00 +13°C° 0 mm 2 m/s 742 mmHg 68%
    13:00 +13°C° 0 mm 2 m/s 741 mmHg 68%
    14:00 +13°C° 0 mm 1 m/s 741 mmHg 68%
    15:00 +13°C° 0 mm 1 m/s 741 mmHg 68%
    16:00 +12°C° 0 mm 1 m/s 741 mmHg 73%
    17:00 +10°C° 0 mm 1 m/s 741 mmHg 79%
    18:00 +8°C° 0 mm 0 m/s 741 mmHg 84%
    19:00 +8°C° 0 mm 0 m/s 741 mmHg 86%
    20:00 +8°C° 0 mm 1 m/s 742 mmHg 88%
    21:00 +8°C° 0 mm 1 m/s 742 mmHg 89%
    22:00 +6°C° 0 mm 0 m/s 742 mmHg 90%
    23:00 +6°C° 0 mm 0 m/s 742 mmHg 91%

    20 Février, Mercredi

    Heure Température Précipitation Vent Pression Humidité
    00:00 +5°C° 0 mm 0 m/s 742 mmHg 92%
    01:00 +5°C° 0 mm 0 m/s 742 mmHg 92%
    02:00 +5°C° 0 mm 0 m/s 742 mmHg 92%
    03:00 +5°C° 0 mm 0 m/s 742 mmHg 93%
    04:00 +4°C° 0 mm 0 m/s 742 mmHg 93%
    05:00 +5°C° 0 mm 1 m/s 742 mmHg 93%
    06:00 +5°C° 0 mm 1 m/s 742 mmHg 93%
    07:00 +6°C° 0 mm 1 m/s 742 mmHg 88%
    08:00 +7°C° 0 mm 1 m/s 743 mmHg 84%
    09:00 +8°C° 0 mm 1 m/s 743 mmHg 79%
    10:00 +10°C° 0 mm 1 m/s 743 mmHg 73%
    11:00 +10°C° 0 mm 2 m/s 743 mmHg 66%
    12:00 +13°C° 0 mm 2 m/s 743 mmHg 60%
    13:00 +13°C° 0 mm 2 m/s 743 mmHg 59%
    14:00 +13°C° 0 mm 1 m/s 743 mmHg 58%
    15:00 +14°C° 0 mm 1 m/s 743 mmHg 57%
    16:00 +12°C° 0 mm 1 m/s 743 mmHg 62%
    17:00 +10°C° 0 mm 1 m/s 743 mmHg 68%
    18:00 +9°C° 0 mm 1 m/s 744 mmHg 74%
    19:00 +8°C° 0 mm 1 m/s 744 mmHg 75%
    20:00 +7°C° 0 mm 0 m/s 744 mmHg 76%
    21:00 +6°C° 0 mm 0 m/s 745 mmHg 77%
    22:00 +6°C° 0 mm 0 m/s 745 mmHg 78%
    23:00 +6°C° 0 mm 0 m/s 745 mmHg 79%

    21 Février, Jeudi

    Heure Température Précipitation Vent Pression Humidité
    00:00 +5°C° 0 mm 0 m/s 745 mmHg 80%
    01:00 +5°C° 0 mm 0 m/s 745 mmHg 81%
    02:00 +5°C° 0 mm 0 m/s 745 mmHg 82%
    03:00 +5°C° 0 mm 0 m/s 745 mmHg 82%
    04:00 +4°C° 0 mm 0 m/s 745 mmHg 83%
    05:00 +4°C° 0 mm 0 m/s 745 mmHg 84%
    06:00 +4°C° 0 mm 0 m/s 745 mmHg 84%
    07:00 +5°C° 0 mm 0 m/s 746 mmHg 80%
    08:00 +7°C° 0 mm 0 m/s 746 mmHg 76%
    09:00 +9°C° 0 mm 1 m/s 746 mmHg 72%
    10:00 +9°C° 0 mm 0 m/s 746 mmHg 68%
    11:00 +11°C° 0 mm 0 m/s 746 mmHg 63%
    12:00 +13°C° 0 mm 0 m/s 746 mmHg 58%
    13:00 +13°C° 0 mm 0 m/s 746 mmHg 57%
    14:00 +13°C° 0 mm 0 m/s 746 mmHg 56%
    15:00 +13°C° 0 mm 0 m/s 746 mmHg 55%
    16:00 +12°C° 0 mm 0 m/s 746 mmHg 62%
    17:00 +10°C° 0 mm 0 m/s 746 mmHg 68%
    18:00 +8°C° 0 mm 0 m/s 746 mmHg 75%
    19:00 +8°C° 0 mm 0 m/s 747 mmHg 76%
    20:00 +8°C° 0 mm 1 m/s 747 mmHg 78%
    21:00 +8°C° 0 mm 1 m/s 747 mmHg 79%
    22:00 +8°C° 0 mm 1 m/s 748 mmHg 81%
    23:00 +7°C° 0 mm 1 m/s 748 mmHg 83%

    22 Février, Vendredi

    Heure Température Précipitation Vent Pression Humidité
    00:00 +7°C° 0 mm 1 m/s 748 mmHg 86%
    01:00 +7°C° 0 mm 1 m/s 748 mmHg 87%
    02:00 +7°C° 0 mm 1 m/s 748 mmHg 87%
    03:00 +5°C° 0 mm 2 m/s 748 mmHg 88%
    04:00 +5°C° 0 mm 2 m/s 748 mmHg 89%
    05:00 +5°C° 0 mm 2 m/s 748 mmHg 91%
    06:00 +4°C° 0 mm 2 m/s 748 mmHg 92%
    07:00 +6°C° 0 mm 2 m/s 748 mmHg 87%
    08:00 +7°C° 0 mm 2 m/s 748 mmHg 83%
    09:00 +8°C° 0 mm 3 m/s 748 mmHg 79%
    10:00 +10°C° 0 mm 3 m/s 748 mmHg 74%
    11:00 +11°C° 0 mm 4 m/s 748 mmHg 68%
    12:00 +13°C° 0 mm 4 m/s 748 mmHg 63%
    13:00 +13°C° 0 mm 4 m/s 747 mmHg 63%
    14:00 +13°C° 0 mm 4 m/s 747 mmHg 63%
    15:00 +14°C° 0 mm 5 m/s 747 mmHg 64%
    16:00 +12°C° 0 mm 4 m/s 747 mmHg 71%
    17:00 +11°C° 0 mm 4 m/s 747 mmHg 77%
    18:00 +9°C° 0 mm 3 m/s 747 mmHg 84%
    19:00 +8°C° 0 mm 4 m/s 747 mmHg 85%
    20:00 +7°C° 0 mm 4 m/s 747 mmHg 86%
    21:00 +7°C° 0 mm 4 m/s 747 mmHg 87%
    22:00 +7°C° 0 mm 4 m/s 747 mmHg 88%
    23:00 +6°C° 0 mm 4 m/s 747 mmHg 88%
    Voir plus